LEASLECO

Guest
Details From LEAS - Asturias
To LECO - A Coruna
Flight Number -
Tags decoded
Created
Modified
Stats Distance 106 nm / 197 km
Max Altitude 0 ft / 0 m
Waypoints 4
Social Downloads 0
Likes 0
Share VATSIM

Download

Looking for another format? Having issues loading an existing format? Contact us
Advertisement - Login to hide

Notes

Requested: LEAS MASIP R42 ROXER LECO Unmatched points: R42

Route

LEAS MASIP ROXER LECO

ID Type Via Altitude Latitude Longitude Leg Dist Tot Dist Heading (true) Name
O LEAS APT - 0 ft / 0 m 43.56350˚ -6.03467˚ - 0 nm - Asturias
MASIP FIX - 0 ft / 0 m 43.38944˚ -6.65556˚ 29 nm 29 nm 249° / 249° -
ROXER FIX - 0 ft / 0 m 43.21844˚ -7.36010˚ 32 nm 61 nm 252° / 251° -
O LECO APT - 0 ft / 0 m 43.30226˚ -8.37709˚ 44 nm 106 nm 277° / 276° A Coruna

Altitude Profile

Advertisement - Login to hide

LEAS

Details ICAO LEAS (OVD)
Name Asturias
Region Spain
Timezone Europe/Madrid (UTC+1.0)
Stats Elevation 416 ft / 127 m (AMSL)
Location 43.563496° -6.034670°
Runways 1
Magnetic Variation 1.627° W

METAR

LEAS 181505Z 24008KT 210V270 3300 RADZ FEW008 BKN013 OVC020 10/09 Q1032 TEMPO 6000 NSW

Decode

TAF

TAF LEAS 181400Z 1815/1915 29009KT 9999 SCT010 BKN020 TX13/1823Z TN09/1908Z PROB40 TEMPO 1815/1821 31015G25KT TEMPO 1815/1903 3000 -RADZ BKN010 BKN014 PROB40 TEMPO 1818/1824 1500 RA BCFG BKN005

Decode

Departure Runways

ID Width Length Bearing (true) Bearing (mag) Surface Threshold Offset Overrun Length
11 148 ft / 45 m 7,216 ft / 2,200 m 108.09° 109.72° Asphalt 0 ft / 0 m 164 ft / 50 m
29 148 ft / 45 m 7,216 ft / 2,200 m 288.10° 289.73° Asphalt 0 ft / 0 m 164 ft / 50 m

LECO

Details ICAO LECO (LCG)
Name A Coruna
Region Spain
Timezone Europe/Madrid (UTC+1.0)
Stats Elevation 323 ft / 98 m (AMSL)
Location 43.302264° -8.377086°
Runways 1
Magnetic Variation 2.390° W

METAR

LECO 181500Z 00000KT 9999 OVC021 12/09 Q1033 NOSIG

Decode

TAF

TAF LECO 181400Z 1815/1915 35009KT 9999 SCT010 BKN020 TX13/1822Z TN10/1905Z TEMPO 1815/1912 BKN014 PROB40 TEMPO 1817/1906 3000 -RADZ BKN005 BKN010 PROB40 TEMPO 1900/1909 0350 FG VV001

Decode

Destination Runways

ID Width Length Bearing (true) Bearing (mag) Surface Threshold Offset Overrun Length
04 148 ft / 45 m 6,371 ft / 1,942 m 30.94° 33.33° Asphalt 0 ft / 0 m 194 ft / 59 m
22 148 ft / 45 m 6,371 ft / 1,942 m 210.94° 213.33° Asphalt 0 ft / 0 m 203 ft / 62 m

Approach Navaids

Runway Type Ident Frequency Range Bearing (true) Bearing (mag) Slope Elevation
22 Localiser LCO 109.90 MHz 18 nm / 33 km 210.89° 213.28° - 329 ft / 100 m (AMSL)
22 Glidescope LCO 109.90 MHz 10 nm / 19 km 210.94° 213.33° 3.00° 323 ft / 98 m (AMSL)
22 DME LCO 109.90 MHz 18 nm / 33 km - - - 293 ft / 89 m (AMSL)

Popular Alternatives